GW4049 Weather Reports


Display with metric or nautical units.
time (UTC)temp
F
wind
direction
speed
MPH
gust
MPH
rain 1hr
in
rain 24hr
in
rain mn
in
humidity
%
barometer
mb
20260904151613 68 247 2.0 3.0 0.00 0.00 0.00 35 1031.4
20260904151112 67 226 2.0 2.0 0.00 0.00 0.00 35 1031.5
20260904150608 68 272 1.0 2.0 0.00 0.00 0.00 31 1031.5
20260904145602 67 259 1.0 1.0 0.00 0.00 0.00 32 1031.5
20260904145056 67 313 3.0 3.0 0.00 0.00 0.00 33 1031.5
20260904144552 66 253 0.0 1.0 0.00 0.00 0.00 34 1031.8
20260904144048 67 247 1.0 2.0 0.00 0.00 0.00 36 1031.4
20260904143544 65 258 0.0 1.0 0.00 0.00 0.00 34 1031.2
20260904143041 64 272 1.0 4.0 0.00 0.00 0.00 38 1031.2
20260904142536 64 242 1.0 3.0 0.00 0.00 0.00 38 1031.4
20260904142032 63 240 1.0 1.0 0.00 0.00 0.00 44 1031.5
20260904141532 61 252 0.0 0.0 0.00 0.00 0.00 46 1031.6
20260904141027 60 241 0.0 0.0 0.00 0.00 0.00 46 1031.4
20260904140527 60 234 0.0 0.0 0.00 0.00 0.00 43 1031.2
20260904140022 59 214 0.0 0.0 0.00 0.00 0.00 47 1031.2
20260904135521 59 211 0.0 0.0 0.00 0.00 0.00 48 1031.0
20260904135017 58 250 0.0 0.0 0.00 0.00 0.00 48 1031.2
20260904134512 57 244 1.0 1.0 0.00 0.00 0.00 50 1031.1
20260904134007 56 236 1.0 2.0 0.00 0.00 0.00 48 1031.1
20260904133501 56 225 2.0 3.0 0.00 0.00 0.00 50 1030.8
20260904132957 56 222 2.0 2.0 0.00 0.00 0.00 49 1031.0
20260904132457 55 223 2.0 2.0 0.00 0.00 0.00 47 1030.7
20260904131952 54 209 3.0 3.0 0.00 0.00 0.00 48 1030.7
20260904131447 54 212 2.0 3.0 0.00 0.00 0.00 47 1030.8
20260904130943 54 236 1.0 3.0 0.00 0.00 0.00 47 1030.7
20260904130442 54 210 2.0 3.0 0.00 0.00 0.00 46 1030.4
20260904125936 55 209 2.0 3.0 0.00 0.00 0.00 44 1030.2
20260904125433 54 207 3.0 4.0 0.00 0.00 0.00 44 1030.6
20260904124927 53 212 2.0 3.0 0.00 0.00 0.00 45 1029.9
20260904124423 52 209 3.0 3.0 0.00 0.00 0.00 46 1030.2
20260904123918 52 203 3.0 3.0 0.00 0.00 0.00 46 1030.2
20260904123413 52 200 3.0 4.0 0.00 0.00 0.00 47 1030.3
20260904122908 52 189 4.0 4.0 0.00 0.00 0.00 45 1030.0
20260904122407 52 196 3.0 3.0 0.00 0.00 0.00 49 1029.9
20260904121902 53 198 3.0 3.0 0.00 0.00 0.00 47 1029.9
20260904121359 55 234 1.0 3.0 0.00 0.00 0.00 44 1029.9
20260904120855 55 207 3.0 3.0 0.00 0.00 0.00 42 1029.9
20260904120351 57 227 2.0 3.0 0.00 0.00 0.00 40 1029.6
20260904115846 58 282 1.0 4.0 0.00 0.00 0.00 39 1030.0
20260904115341 58 244 1.0 4.0 0.00 0.00 0.00 39 1029.8
20260904114841 58 214 2.0 6.0 0.00 0.00 0.00 38 1029.8
20260904114335 57 188 4.0 6.0 0.00 0.00 0.00 38 1029.8
20260904113831 58 224 3.0 4.0 0.00 0.00 0.00 38 1029.8
20260904113330 57 206 6.0 8.0 0.00 0.00 0.00 38 1029.9
20260904112825 57 202 2.0 6.0 0.00 0.00 0.00 43 1029.6
20260904112320 53 207 2.0 6.0 0.00 0.00 0.00 41 1029.9
20260904111816 52 239 3.0 3.0 0.00 0.00 0.00 45 1029.8
20260904111312 52 200 3.0 3.0 0.00 0.00 0.00 47 1029.5
20260904110808 52 209 2.0 3.0 0.00 0.00 0.00 48 1029.5
20260904110307 52 250 0.0 2.0 0.00 0.00 0.00 47 1029.9
20260904105802 52 211 4.0 4.0 0.00 0.00 0.00 46 1029.6
20260904105305 52 205 3.0 3.0 0.00 0.00 0.00 49 1029.5
20260904104757 53 195 3.0 3.0 0.00 0.00 0.00 48 1029.3
20260904104253 52 198 3.0 4.0 0.00 0.00 0.00 47 1029.5
20260904103749 52 214 3.0 3.0 0.00 0.00 0.00 48 1029.5
20260904103243 52 209 3.0 3.0 0.00 0.00 0.00 49 1029.5
20260904102739 52 205 3.0 3.0 0.00 0.00 0.00 49 1029.4
20260904102234 52 209 3.0 3.0 0.00 0.00 0.00 49 1029.3
20260904101731 52 206 2.0 3.0 0.00 0.00 0.00 49 1029.1
20260904101226 52 204 3.0 3.0 0.00 0.00 0.00 50 1029.1
20260904100722 52 207 3.0 3.0 0.00 0.00 0.00 49 1029.1
20260904100218 53 199 4.0 4.0 0.00 0.00 0.00 49 1029.3
20260904095717 53 206 3.0 4.0 0.00 0.00 0.00 47 1029.1
20260904095212 53 198 4.0 4.0 0.00 0.00 0.00 47 1029.3
20260904094707 53 198 4.0 4.0 0.00 0.00 0.00 47 1029.3
20260904094202 55 200 3.0 3.0 0.00 0.00 0.00 44 1029.3
20260904093659 55 214 3.0 6.0 0.00 0.00 0.00 43 1029.3
20260904093158 55 219 2.0 3.0 0.00 0.00 0.00 45 1029.3
20260904092654 56 240 1.0 3.0 0.00 0.00 0.00 44 1029.1
20260904092150 58 224 2.0 2.0 0.00 0.00 0.00 41 1029.1
20260904091646 59 222 4.0 4.0 0.00 0.00 0.00 39 1029.1
20260904091146 60 214 4.0 6.0 0.00 0.00 0.00 38 1029.1
20260904090641 59 255 4.0 6.0 0.00 0.00 0.00 39 1029.3
20260904090137 59 225 3.0 4.0 0.00 0.00 0.00 40 1029.1
20260904085637 58 215 2.0 6.0 0.00 0.00 0.00 41 1029.3
20260904085132 57 212 4.0 6.0 0.00 0.00 0.00 42 1029.4
20260904084627 57 225 2.0 4.0 0.00 0.00 0.00 43 1029.3
20260904084124 56 189 2.0 4.0 0.00 0.00 0.00 43 1029.0
20260904083620 57 252 2.0 4.0 0.00 0.00 0.00 44 1029.3
20260904083115 55 226 1.0 3.0 0.00 0.00 0.00 47 1029.1
20260904082610 54 222 2.0 2.0 0.00 0.00 0.00 53 1029.1
20260904082106 53 227 3.0 3.0 0.00 0.00 0.00 55 1029.0
20260904081601 53 242 1.0 3.0 0.00 0.00 0.00 57 1029.0
20260904081055 53 201 3.0 3.0 0.00 0.00 0.00 54 1029.1
20260904080551 54 205 4.0 4.0 0.00 0.00 0.00 53 1029.1
20260904080047 54 205 3.0 3.0 0.00 0.00 0.00 53 1029.4
20260904075543 54 210 3.0 3.0 0.00 0.00 0.00 53 1029.3
20260904075038 54 206 3.0 3.0 0.00 0.00 0.00 54 1029.1
20260904074537 55 215 2.0 3.0 0.00 0.00 0.00 54 1029.3
20260904074032 55 221 2.0 3.0 0.00 0.00 0.00 54 1029.4
20260904073527 55 208 2.0 3.0 0.00 0.00 0.00 53 1029.3
20260904073023 55 208 3.0 3.0 0.00 0.00 0.00 51 1029.1
20260904072519 55 216 3.0 3.0 0.00 0.00 0.00 51 1029.5
20260904072013 55 208 3.0 3.0 0.00 0.00 0.00 51 1029.5
20260904071509 54 205 3.0 3.0 0.00 0.00 0.00 51 1029.4
20260904071004 55 216 3.0 3.0 0.00 0.00 0.00 50 1029.5
20260904070502 55 210 2.0 3.0 0.00 0.00 0.00 51 1029.6
20260904065957 55 208 3.0 3.0 0.00 0.00 0.00 51 1029.5
20260904065453 54 207 3.0 3.0 0.00 0.00 0.00 52 1029.6
20260904064948 55 204 3.0 3.0 0.00 0.00 0.00 52 1029.6
20260904064444 55 207 3.0 4.0 0.00 0.00 0.00 50 1029.6
20260904063939 55 205 3.0 3.0 0.00 0.00 0.00 50 1029.8
20260904063436 55 207 3.0 3.0 0.00 0.00 0.00 51 1029.9
20260904062931 55 217 3.0 3.0 0.00 0.00 0.00 49 1029.8
20260904062426 56 198 3.0 3.0 0.00 0.00 0.00 49 1030.0
20260904061922 55 193 4.0 6.0 0.00 0.00 0.00 48 1029.9
20260904061419 55 205 3.0 3.0 0.00 0.00 0.00 51 1029.8
20260904060915 55 197 4.0 4.0 0.00 0.00 0.00 50 1029.9
20260904060410 55 207 3.0 3.0 0.00 0.00 0.00 51 1030.0
20260904055906 55 205 2.0 3.0 0.00 0.00 0.00 51 1029.8
20260904055401 55 206 3.0 3.0 0.00 0.00 0.00 50 1029.6
20260904054856 55 202 3.0 3.0 0.00 0.00 0.00 51 1029.9
20260904054352 55 210 4.0 4.0 0.00 0.00 0.00 50 1029.9
20260904053847 55 201 3.0 3.0 0.00 0.00 0.00 51 1029.8
20260904053347 55 200 3.0 4.0 0.00 0.00 0.00 50 1029.8
20260904052843 56 203 3.0 3.0 0.00 0.00 0.00 50 1029.6
20260904052339 55 196 3.0 3.0 0.00 0.00 0.00 50 1029.5
20260904051835 56 201 3.0 3.0 0.00 0.00 0.00 51 1029.9
20260904051331 57 205 3.0 3.0 0.00 0.00 0.00 48 1029.8
20260904050830 57 206 4.0 4.0 0.00 0.00 0.00 47 1029.8
20260904050328 58 215 2.0 4.0 0.00 0.00 0.00 46 1029.8
20260904045822 58 202 3.0 4.0 0.00 0.00 0.00 46 1029.9
20260904045317 58 212 2.0 3.0 0.00 0.00 0.00 47 1029.8
20260904044817 59 226 2.0 3.0 0.00 0.00 0.00 46 1029.8
20260904044314 60 229 2.0 2.0 0.00 0.00 0.00 43 1029.9
20260904043809 61 244 2.0 3.0 0.00 0.00 0.00 43 1029.9
20260904043306 61 202 3.0 4.0 0.00 0.00 0.00 43 1029.8
20260904042800 61 209 2.0 4.0 0.00 0.00 0.00 42 1029.9
20260904042257 61 248 1.0 2.0 0.00 0.00 0.00 42 1030.0
20260904041756 61 246 2.0 6.0 0.00 0.00 0.00 42 1030.0
20260904041253 61 230 2.0 6.0 0.00 0.00 0.00 43 1030.2
20260904040748 61 245 2.0 2.0 0.00 0.00 0.00 42 1030.0
20260904040244 60 215 3.0 3.0 0.00 0.00 0.00 43 1030.0
20260904035740 60 226 2.0 3.0 0.00 0.00 0.00 43 1030.2
20260904035235 60 232 2.0 3.0 0.00 0.00 0.00 43 1030.3
20260904034734 60 234 2.0 3.0 0.00 0.00 0.00 44 1030.4
20260904034230 60 224 2.0 3.0 0.00 0.00 0.00 43 1030.2
20260904033725 60 227 3.0 3.0 0.00 0.00 0.00 43 1030.2
20260904033222 60 220 2.0 2.0 0.00 0.00 0.00 43 1030.2
20260904032713 60 194 2.0 3.0 0.00 0.00 0.00 42 1029.9
20260904032211 60 198 3.0 3.0 0.00 0.00 0.00 44 1030.2
20260904031706 60 254 1.0 2.0 0.00 0.00 0.00 44 1029.9
20260904031201 60 225 1.0 2.0 0.00 0.00 0.00 43 1030.0
20260904030657 60 222 2.0 3.0 0.00 0.00 0.00 43 1030.2
20260904030152 60 227 2.0 2.0 0.00 0.00 0.00 43 1030.3
20260904025648 61 244 1.0 2.0 0.00 0.00 0.00 41 1029.9
20260904025143 62 252 0.0 1.0 0.00 0.00 0.00 42 1030.2
20260904024639 62 254 0.0 2.0 0.00 0.00 0.00 41 1030.0
20260904024134 62 259 1.0 2.0 0.00 0.00 0.00 40 1030.0
20260904023630 61 249 1.0 2.0 0.00 0.00 0.00 42 1029.8
20260904023125 61 247 0.0 1.0 0.00 0.00 0.00 44 1029.9
20260904022625 61 236 2.0 2.0 0.00 0.00 0.00 43 1029.6
20260904022122 63 248 1.0 1.0 0.00 0.00 0.00 41 1029.5
20260904021617 62 276 2.0 3.0 0.00 0.00 0.00 39 1029.4
20260904021112 63 255 0.0 1.0 0.00 0.00 0.00 41 1029.5
20260904020608 62 267 0.0 1.0 0.00 0.00 0.00 40 1029.6
20260904020057 63 253 0.0 1.0 0.00 0.00 0.00 40 1029.4
20260904015556 64 269 0.0 1.0 0.00 0.00 0.00 38 1029.5
20260904015056 64 272 2.0 4.0 0.00 0.00 0.00 38 1029.4
20260904014550 64 296 0.0 2.0 0.00 0.00 0.00 39 1029.3
20260904014046 64 259 0.0 2.0 0.00 0.00 0.00 39 1029.1
20260904013542 64 298 2.0 3.0 0.00 0.00 0.00 38 1029.4
20260904013038 64 267 1.0 2.0 0.00 0.00 0.00 38 1029.3
20260904012532 64 315 2.0 4.0 0.00 0.00 0.00 38 1029.4
20260904012026 65 333 4.0 7.0 0.00 0.00 0.00 37 1029.3
20260904011525 65 259 0.0 1.0 0.00 0.00 0.00 38 1029.3
20260904011021 65 284 1.0 4.0 0.00 0.00 0.00 38 1029.4
20260904010517 65 278 2.0 3.0 0.00 0.00 0.00 38 1029.6
20260904010013 66 43 2.0 6.0 0.00 0.00 0.00 38 1029.3
20260904005508 66 355 3.0 4.0 0.00 0.00 0.00 37 1029.1
20260904005003 66 27 2.0 7.0 0.00 0.00 0.00 37 1029.3
20260904004458 67 352 4.0 7.0 0.00 0.00 0.00 37 1029.3
20260904003953 67 272 3.0 7.0 0.00 0.00 0.00 35 1029.3
20260904003449 68 288 1.0 3.0 0.00 0.00 0.00 35 1029.3
20260904002944 68 297 3.0 9.0 0.00 0.00 0.00 34 1029.3
20260904002441 68 326 11.0 14.0 0.00 0.00 0.00 34 1029.1
20260904001939 67 271 1.0 2.0 0.00 0.00 0.00 36 1029.1
20260904001435 68 252 1.0 9.0 0.00 0.00 0.00 35 1028.9
20260904000934 68 264 3.0 6.0 0.00 0.00 0.00 34 1029.3
20260904000435 69 315 3.0 3.0 0.00 0.00 0.00 34 1029.3
20260903235930 69 262 0.0 3.0 0.00 0.00 0.00 34 1029.3
20260903235426 69 16 3.0 9.0 0.00 0.00 0.00 33 1029.0
20260903234925 69 281 4.0 8.0 0.00 0.00 0.00 33 1029.1
20260903234421 70 284 2.0 6.0 0.00 0.00 0.00 33 1029.1
20260903233917 70 47 6.0 8.0 0.00 0.00 0.00 33 1029.1
20260903233413 70 14 4.0 8.0 0.00 0.00 0.00 33 1029.1
20260903232908 70 299 4.0 8.0 0.00 0.00 0.00 33 1028.9
20260903232403 70 354 6.0 11.0 0.00 0.00 0.00 33 1029.0
20260903231903 70 289 6.0 7.0 0.00 0.00 0.00 33 1029.3
20260903231357 69 14 6.0 8.0 0.00 0.00 0.00 33 1029.0
20260903230853 70 344 5.0 7.0 0.00 0.00 0.00 33 1029.3
20260903230348 71 317 6.0 9.0 0.00 0.00 0.00 34 1028.9
20260903225844 71 332 5.0 8.0 0.00 0.00 0.00 33 1029.1
20260903225339 71 269 4.0 8.0 0.00 0.00 0.00 33 1029.1
20260903224835 71 353 7.0 11.0 0.00 0.00 0.00 33 1029.0
20260903224326 71 135 3.0 11.0 0.00 0.00 0.00 33 1028.9
20260903223822 71 312 8.0 10.0 0.00 0.00 0.00 33 1029.1
20260903223320 72 15 6.0 8.0 0.00 0.00 0.00 33 1029.0
20260903222815 71 305 3.0 10.0 0.00 0.00 0.00 32 1028.9
20260903222313 73 294 3.0 3.0 0.00 0.00 0.00 31 1029.0
20260903221809 72 75 5.0 6.0 0.00 0.00 0.00 31 1029.0
20260903221308 71 349 4.0 7.0 0.00 0.00 0.00 32 1029.1
20260903220806 70 322 3.0 7.0 0.00 0.00 0.00 33 1029.4
20260903220300 72 20 4.0 6.0 0.00 0.00 0.00 33 1029.3
20260903215753 72 55 4.0 6.0 0.00 0.00 0.00 31 1029.1
20260903215250 72 352 5.0 9.0 0.00 0.00 0.00 33 1029.1
20260903214747 71 25 3.0 6.0 0.00 0.00 0.00 32 1029.1
20260903214244 71 60 3.0 8.0 0.00 0.00 0.00 33 1029.1
20260903213738 70 236 6.0 10.0 0.00 0.00 0.00 33 1029.3
20260903213234 71 282 4.0 7.0 0.00 0.00 0.00 33 1029.0
20260903212729 71 299 6.0 16.0 0.00 0.00 0.00 33 1029.0
20260903212226 71 71 5.0 10.0 0.00 0.00 0.00 34 1029.3
20260903211725 71 301 5.0 14.0 0.00 0.00 0.00 34 1029.3
20260903211221 71 234 2.0 7.0 0.00 0.00 0.00 34 1029.1
20260903210717 71 354 4.0 8.0 0.00 0.00 0.00 33 1029.3
20260903210213 69 14 6.0 8.0 0.00 0.00 0.00 35 1029.4
20260903205712 69 333 1.0 8.0 0.00 0.00 0.00 36 1029.4
20260903205211 70 346 4.0 7.0 0.00 0.00 0.00 34 1029.6
20260903204707 70 5 4.0 10.0 0.00 0.00 0.00 34 1029.5
20260903204203 70 333 6.0 7.0 0.00 0.00 0.00 34 1029.6
20260903203658 71 20 9.0 15.0 0.00 0.00 0.00 33 1029.4
20260903203153 72 3 4.0 9.0 0.00 0.00 0.00 35 1029.4
20260903202648 72 7 1.0 7.0 0.00 0.00 0.00 32 1029.4
20260903202144 72 13 5.0 11.0 0.00 0.00 0.00 34 1029.6
20260903201638 74 350 3.0 9.0 0.00 0.00 0.00 31 1029.4
20260903201137 73 59 4.0 7.0 0.00 0.00 0.00 30 1029.1
20260903200632 73 338 7.0 8.0 0.00 0.00 0.00 32 1029.5
20260903200128 71 0 4.0 6.0 0.00 0.00 0.00 34 1029.4
20260903195623 71 316 6.0 9.0 0.00 0.00 0.00 34 1029.5
20260903195119 73 287 3.0 16.0 0.00 0.00 0.00 31 1029.5
20260903194614 71 39 8.0 11.0 0.00 0.00 0.00 30 1029.5
20260903194109 72 258 6.0 9.0 0.00 0.00 0.00 29 1029.6
20260903193605 72 183 2.0 6.0 0.00 0.00 0.00 30 1029.6
20260903193100 70 72 1.0 4.0 0.00 0.00 0.00 32 1029.8
20260903192557 71 10 3.0 4.0 0.00 0.00 0.00 33 1029.8
20260903192057 72 31 1.0 3.0 0.00 0.00 0.00 33 1029.9
20260903191553 71 224 1.0 4.0 0.00 0.00 0.00 31 1029.8
20260903191048 71 216 1.0 2.0 0.00 0.00 0.00 32 1030.0
20260903190547 70 120 1.0 6.0 0.00 0.00 0.00 32 1029.8
20260903190047 70 311 1.0 4.0 0.00 0.00 0.00 33 1029.9
20260903185542 69 261 2.0 7.0 0.00 0.00 0.00 33 1030.2
20260903185038 71 1 4.0 8.0 0.00 0.00 0.00 32 1030.0
20260903184534 70 7 5.0 7.0 0.00 0.00 0.00 34 1030.0
20260903184029 70 13 2.0 4.0 0.00 0.00 0.00 33 1030.2
20260903183528 69 101 3.0 4.0 0.00 0.00 0.00 33 1030.3
20260903183024 69 198 7.0 8.0 0.00 0.00 0.00 35 1030.6
20260903182522 68 264 1.0 3.0 0.00 0.00 0.00 34 1030.7
20260903182019 70 353 3.0 3.0 0.00 0.00 0.00 35 1030.6
20260903181517 69 342 1.0 9.0 0.00 0.00 0.00 36 1030.6
20260903181017 69 336 3.0 6.0 0.00 0.00 0.00 34 1030.3
20260903180513 69 238 5.0 7.0 0.00 0.00 0.00 30 1030.7
20260903180012 69 251 2.0 4.0 0.00 0.00 0.00 31 1030.7
20260903175511 69 200 7.0 9.0 0.00 0.00 0.00 32 1030.4
20260903175010 69 74 3.0 7.0 0.00 0.00 0.00 32 1031.0
20260903174505 70 340 4.0 4.0 0.00 0.00 0.00 31 1031.0
20260903174000 69 32 3.0 4.0 0.00 0.00 0.00 32 1030.8
20260903173455 68 236 0.0 2.0 0.00 0.00 0.00 30 1030.8
20260903172950 68 10 3.0 4.0 0.00 0.00 0.00 30 1030.7
20260903172446 67 236 2.0 3.0 0.00 0.00 0.00 30 1031.0
20260903171941 69 209 3.0 3.0 0.00 0.00 0.00 29 1030.8
20260903171436 68 206 2.0 7.0 0.00 0.00 0.00 31 1031.1
20260903170936 67 263 1.0 4.0 0.00 0.00 0.00 32 1030.8
20260903170431 67 323 7.0 9.0 0.00 0.00 0.00 32 1031.1
20260903165930 66 302 3.0 4.0 0.00 0.00 0.00 32 1031.0
20260903165424 66 323 4.0 9.0 0.00 0.00 0.00 32 1030.7
20260903164918 67 354 3.0 13.0 0.00 0.00 0.00 32 1031.0
20260903164414 66 344 7.0 9.0 0.00 0.00 0.00 31 1030.8
20260903163913 68 296 0.0 2.0 0.00 0.00 0.00 34 1031.1
20260903163409 68 253 1.0 2.0 0.00 0.00 0.00 30 1031.1
20260903162905 66 208 0.0 4.0 0.00 0.00 0.00 33 1030.8
20260903162402 66 239 4.0 11.0 0.00 0.00 0.00 35 1030.7
20260903161857 66 177 2.0 6.0 0.00 0.00 0.00 35 1030.8
20260903161352 66 325 3.0 7.0 0.00 0.00 0.00 35 1030.7
20260903160848 66 254 0.0 2.0 0.00 0.00 0.00 33 1030.8
20260903160347 67 223 4.0 4.0 0.00 0.00 0.00 33 1030.8
20260903155845 65 261 3.0 7.0 0.00 0.00 0.00 40 1030.7
20260903155341 64 257 4.0 6.0 0.00 0.00 0.00 37 1030.8
20260903154837 64 251 2.0 3.0 0.00 0.00 0.00 37 1030.8
20260903154333 63 232 4.0 7.0 0.00 0.00 0.00 38 1030.7
20260903153833 63 229 4.0 7.0 0.00 0.00 0.00 39 1030.6
20260903153329 63 231 5.0 7.0 0.00 0.00 0.00 39 1030.7
20260903152825 64 208 3.0 6.0 0.00 0.00 0.00 39 1030.7
20260903152320 63 263 2.0 2.0 0.00 0.00 0.00 39 1030.8